Last reported at 2014-Mar-27 18:32 UTC.
Time now 2014-Apr-17 00:53 UTC

Location: N 32°01' E 034°53'.
View on Google Maps.

See reports from other nearby stations

Tides Stations Pressure Air Temp Water Temp Dewpoint Dewpoint depression Visibility Wind Speed Wind Dir Waves Ship positions

  
sailing weather and tide predictions

Ben Gurion weather

date/time (UTC)wind fromknots sea level pressurealtimeterstation pressurevisibilityair tempwater tempwave heightnotes
2014-Apr-16 23:20 190 4 17.0
2014-Apr-16 22:50 18.0
2014-Apr-16 22:20 19.0
2014-Apr-16 21:50 19.0
2014-Apr-16 21:20 240 4 19.0
2014-Apr-16 20:50 160 4 20.0
2014-Apr-16 20:20 21.0
2014-Apr-16 19:50 310 5 20.0
2014-Apr-16 19:20 330 6 21.0
2014-Apr-16 18:50 340 5 21.0
2014-Apr-16 18:20 030 5 22.0
2014-Apr-16 17:50 030 6 22.0
2014-Apr-16 17:20 010 6 22.0
2014-Apr-16 16:50 010 5 22.0
2014-Apr-16 16:20 360 9 23.0
2014-Apr-16 15:50 360 9 23.0
2014-Apr-16 15:20 350 10 24.0
2014-Apr-16 14:50 340 13 25.0
2014-Apr-16 14:20 330 12 25.0
2014-Apr-16 13:50 340 10 26.0
2014-Apr-16 13:20 310 13 26.0
2014-Apr-16 12:50 330 12 27.0
2014-Apr-16 12:20 320 12 27.0
2014-Apr-16 11:50 310 11 27.0
2014-Apr-16 11:20 310 9 27.0
2014-Apr-16 10:50 310 8 28.0
2014-Apr-16 10:20 300 8 28.0
2014-Apr-16 09:50 300 7 28.0
2014-Apr-16 09:20 290 7 27.0
2014-Apr-16 08:50 300 8 27.0
2014-Apr-16 08:20 27.0
2014-Apr-16 07:50 26.0
2014-Apr-16 07:20 25.0
2014-Apr-16 06:50 200 6 23.0
2014-Apr-16 06:20 220 7 4.923.0
2014-Apr-16 05:50 230 6 4.923.0
2014-Apr-16 05:20 190 7 4.922.0
2014-Apr-16 04:50 180 4 20.0
2014-Apr-16 04:20 130 7 18.0
2014-Apr-16 03:50 140 4 17.0
2014-Apr-16 03:20 18.0
2014-Apr-16 02:50 17.0
2014-Apr-16 02:20 18.0
2014-Apr-16 01:50 18.0
2014-Apr-16 01:20 18.0
2014-Apr-16 00:50 280 4 5.417.0
2014-Apr-16 00:20 300 6 5.417.0
2014-Apr-15 23:50 090 6 5.418.0
2014-Apr-15 23:20 060 4 5.419.0
2014-Apr-15 22:50 020 9 5.419.0
2014-Apr-15 22:20 5.419.0
2014-Apr-15 21:50 5.419.0
2014-Apr-15 21:20 270 6 5.419.0 Rain.
2014-Apr-15 20:50 20.0
2014-Apr-15 20:20 20.0
2014-Apr-15 19:50 070 7 21.0
2014-Apr-15 19:20 22.0
2014-Apr-15 18:50 22.0
2014-Apr-15 18:20 300 6 22.0
2014-Apr-15 17:50 22.0
2014-Apr-15 17:20 23.0
2014-Apr-15 16:50 050 4 23.0
2014-Apr-15 16:20 24.0
2014-Apr-15 15:50 25.0
2014-Apr-15 15:20 26.0
2014-Apr-15 14:50 320 4 26.0
2014-Apr-15 14:20 340 5 26.0
2014-Apr-15 13:50 300 6 26.0
2014-Apr-15 13:20 290 7 27.0
2014-Apr-15 12:50 300 9 28.0
2014-Apr-15 12:20 280 11 28.0
2014-Apr-15 11:50 260 13 29.0
2014-Apr-15 11:20 250 14 28.0
2014-Apr-15 10:50 240 11 30.0
2014-Apr-15 10:20 220 10 30.0
2014-Apr-15 09:50 220 9 30.0
2014-Apr-15 09:20 220 5 30.0
2014-Apr-15 08:50 30.0
2014-Apr-15 08:20 120 5 29.0
2014-Apr-15 07:50 28.0
2014-Apr-15 07:20 090 5 27.0
2014-Apr-15 06:50 24.0
2014-Apr-15 06:20 22.0
2014-Apr-15 05:50 20.0
2014-Apr-15 05:20 18.0
2014-Apr-15 04:50 17.0
2014-Apr-15 04:20 16.0
2014-Apr-15 03:50 15.0
2014-Apr-15 03:20 090 4 15.0
2014-Apr-15 02:50 15.0
2014-Apr-15 02:20 140 5 15.0
2014-Apr-15 01:50 16.0
2014-Apr-15 01:20 14.0
2014-Apr-15 00:50 14.0
2014-Apr-15 00:20 15.0